EW8041 Weather Reports


Display with metric or nautical units.
time (UTC)temp
F
wind
direction
speed
MPH
gust
MPH
rain 1hr
in
rain 24hr
in
rain mn
in
humidity
%
barometer
mb
20260502214527 68 281 4.0 11.0 0.00 0.00 0.00 41 1014.7
20260502213522 68 266 5.0 10.0 0.00 0.00 0.00 43 1014.8
20260502212518 67 297 4.0 10.0 0.00 0.00 0.00 43 1014.7
20260502211533 66 278 2.0 6.0 0.00 0.00 0.00 41 1014.9
20260502210549 67 339 2.0 7.0 0.00 0.00 0.00 41 1014.9
20260502205545 68 297 2.0 9.0 0.00 0.00 0.00 40 1014.8
20260502204521 69 282 3.0 14.0 0.00 0.00 0.00 42 1014.8
20260502203517 68 270 7.0 17.0 0.00 0.00 0.00 40 1014.9
20260502202533 68 276 5.0 13.0 0.00 0.00 0.00 39 1015.2
20260502201529 68 279 3.0 10.0 0.00 0.00 0.00 41 1015.1
20260502200524 67 304 4.0 10.0 0.00 0.00 0.00 40 1015.1
20260502195521 68 35 1.0 7.0 0.00 0.00 0.00 40 1015.2
20260502194515 68 359 1.0 4.0 0.00 0.00 0.00 41 1015.3
20260502193532 68 267 3.0 14.0 0.00 0.00 0.00 41 1015.4
20260502192528 69 317 3.0 10.0 0.00 0.00 0.00 41 1015.5
20260502191523 67 51 1.0 4.0 0.00 0.00 0.00 42 1015.6
20260502190539 68 304 2.0 13.0 0.00 0.00 0.00 43 1015.6
20260502185535 67 280 4.0 13.0 0.00 0.00 0.00 42 1015.6
20260502184551 67 320 2.0 10.0 0.00 0.00 0.00 42 1015.8
20260502183526 66 294 3.0 13.0 0.00 0.00 0.00 42 1015.7
20260502182522 67 82 3.0 7.0 0.00 0.00 0.00 40 1015.7
20260502181537 67 303 4.0 14.0 0.00 0.00 0.00 42 1015.8
20260502180533 67 75 2.0 9.0 0.00 0.00 0.00 41 1015.9
20260502163516 64 309 3.0 8.0 0.00 0.00 0.00 46 1016.6
20260502162531 63 351 3.0 8.0 0.00 0.00 0.00 49 1016.7
20260502161527 63 109 2.0 7.0 0.00 0.00 0.00 50 1016.8
20260502160523 62 329 2.0 7.0 0.00 0.00 0.00 50 1016.8
20260502151521 62 339 2.0 4.0 0.00 0.00 0.00 52 1016.5
20260502150517 61 322 2.0 6.0 0.00 0.00 0.00 54 1016.3
20260502130525 55 93 1.0 4.0 0.00 0.00 0.00 69 1015.9
20260502123532 52 41 1.0 6.0 0.00 0.00 0.00 70 1015.9
20260502122528 51 326 1.0 6.0 0.00 0.00 0.00 70 1015.9
20260502121524 50 235 1.0 2.0 0.00 0.00 0.00 69 1015.6
20260502120520 50 4 0.0 4.0 0.00 0.00 0.00 67 1015.3
20260502115515 51 336 0.0 2.0 0.00 0.00 0.00 68 1015.3
20260502114532 51 322 1.0 6.0 0.00 0.00 0.00 68 1015.3
20260502113547 51 289 0.0 2.0 0.00 0.00 0.00 67 1015.1
20260502112523 51 1 0.0 2.0 0.00 0.00 0.00 67 1015.1
20260502111519 51 359 0.0 1.0 0.00 0.00 0.00 66 1015.0
20260502110535 51 348 0.0 2.0 0.00 0.00 0.00 66 1014.8
20260502105531 51 351 0.0 2.0 0.00 0.00 0.00 66 1014.7
20260502104527 51 266 0.0 2.0 0.00 0.00 0.00 64 1014.5
20260502103523 52 355 0.0 2.0 0.00 0.00 0.00 64 1014.4
20260502102519 52 5 1.0 2.0 0.00 0.00 0.00 64 1014.6
20260502101535 52 2 0.0 2.0 0.00 0.00 0.00 63 1014.4
20260502100551 52 252 1.0 2.0 0.00 0.00 0.00 62 1014.2
20260502091531 53 277 0.0 1.0 0.00 0.00 0.00 61 1014.3
20260502090526 53 44 0.0 1.0 0.00 0.00 0.00 60 1014.2
20260502070518 55 6 1.0 10.0 0.00 0.00 0.00 56 1014.8
20260502065554 56 334 1.0 6.0 0.00 0.00 0.00 56 1014.9
20260502064530 56 351 1.0 3.0 0.00 0.00 0.00 56 1014.9
20260502063526 56 335 2.0 7.0 0.00 0.00 0.00 55 1015.0
20260502062521 56 21 1.0 3.0 0.00 0.00 0.00 55 1015.0
20260502061537 56 355 2.0 7.0 0.00 0.00 0.00 54 1015.2
20260502060533 56 328 2.0 4.0 0.00 0.00 0.00 54 1015.1
20260502055549 56 163 1.0 10.0 0.00 0.00 0.00 54 1014.9
20260502054525 57 36 2.0 6.0 0.00 0.00 0.00 54 1014.7
20260502053521 57 330 2.0 7.0 0.00 0.00 0.00 53 1014.9
20260502052517 57 14 1.0 4.0 0.00 0.00 0.00 53 1014.6
20260502051533 57 347 2.0 7.0 0.00 0.00 0.00 52 1014.7
20260502050549 57 22 1.0 3.0 0.00 0.00 0.00 53 1014.6
20260502045524 58 356 2.0 6.0 0.00 0.00 0.00 53 1014.3
20260502044520 58 348 2.0 7.0 0.00 0.00 0.00 53 1014.4
20260502043516 58 360 2.0 8.0 0.00 0.00 0.00 53 1014.4
20260502042532 58 101 2.0 6.0 0.00 0.00 0.00 53 1014.5
20260502041527 58 359 1.0 7.0 0.00 0.00 0.00 54 1014.5
20260502040523 58 85 1.0 4.0 0.00 0.00 0.00 54 1014.6
20260502035519 59 327 2.0 8.0 0.00 0.00 0.00 54 1014.5
20260502034555 59 16 2.0 7.0 0.00 0.00 0.00 54 1014.4
20260502033530 59 127 2.0 7.0 0.00 0.00 0.00 54 1014.6
20260502032527 60 348 2.0 7.0 0.00 0.00 0.00 55 1014.7
20260502031542 60 292 2.0 7.0 0.00 0.00 0.00 55 1014.9
20260502030519 60 36 2.0 7.0 0.00 0.00 0.00 56 1015.0
20260502025535 60 300 2.0 6.0 0.00 0.00 0.00 58 1015.1
20260502024531 61 332 2.0 8.0 0.00 0.00 0.00 60 1015.0
20260502023527 61 307 2.0 8.0 0.00 0.00 0.00 62 1014.7
20260502022522 61 299 1.0 9.0 0.00 0.00 0.00 63 1014.7
20260502021537 61 334 1.0 6.0 0.00 0.00 0.00 65 1014.5
20260502020533 62 359 1.0 6.0 0.00 0.00 0.00 65 1014.2
20260502015529 62 350 1.0 4.0 0.00 0.00 0.00 65 1014.1
20260502014545 62 330 1.0 6.0 0.00 0.00 0.00 65 1014.2
20260502013521 61 249 1.0 4.0 0.00 0.00 0.00 67 1014.1
20260502012517 61 307 0.0 3.0 0.00 0.00 0.00 64 1014.1
20260502011532 61 0.0 0.0 0.00 0.00 0.00 63 1014.0
20260502010528 62 359 1.0 1.0 0.00 0.00 0.00 62 1014.0
20260502005544 62 358 1.0 2.0 0.00 0.00 0.00 61 1013.8
20260502004519 63 356 0.0 1.0 0.00 0.00 0.00 60 1013.8
20260502003535 64 356 0.0 1.0 0.00 0.00 0.00 59 1013.5
20260502002530 64 0.0 0.0 0.00 0.00 0.00 58 1013.0
20260502001546 65 356 0.0 1.0 0.00 0.00 0.00 58 1013.1
20260502000521 65 277 0.0 1.0 0.00 0.00 0.00 58 1013.0
20260501235537 65 332 0.0 2.0 0.00 0.00 0.00 57 1012.9
20260501234553 65 273 0.0 1.0 0.00 0.00 0.00 57 1013.0
20260501233529 66 260 0.0 2.0 0.00 0.00 0.00 56 1012.7
20260501232525 66 336 1.0 3.0 0.00 0.00 0.00 56 1012.7
20260501231541 66 318 1.0 4.0 0.00 0.00 0.00 56 1012.8
20260501230517 66 303 1.0 3.0 0.00 0.00 0.00 55 1012.9
20260501225532 67 294 1.0 2.0 0.00 0.00 0.00 55 1012.9
20260501224548 67 10 0.0 2.0 0.00 0.00 0.00 55 1012.9
20260501223524 67 276 1.0 4.0 0.00 0.00 0.00 55 1012.8
20260501222520 67 263 0.0 2.0 0.00 0.00 0.00 54 1012.3
20260501221536 67 359 1.0 4.0 0.00 0.00 0.00 53 1012.1
20260501220532 68 203 0.0 2.0 0.00 0.00 0.00 55 1012.2
20260501215527 68 17 1.0 2.0 0.00 0.00 0.00 54 1012.3